• En España
  • Lista de países
  • Para 7 días
  • Temperatura del agua
  • Mapa Satelital
  • El tiempo en el mapa
  • Informadores
  • user-avatar
    Iniciar sesión

    Tiempo cada hora Kurichino

    Hoy, 21 Julio, Sábado

    Tiempo Temperatura Precipitaciones Viento Presión Humedad
    00:00 +19°C° 0 mm 1 mps 730 mmHg 98%
    01:00 +19°C° 0 mm 1 mps 730 mmHg 98%
    02:00 +19°C° 0 mm 1 mps 730 mmHg 98%
    03:00 +19°C° 0 mm 1 mps 730 mmHg 98%
    04:00 +19°C° 0 mm 1 mps 730 mmHg 98%
    05:00 +19°C° 0 mm 1 mps 730 mmHg 98%
    06:00 +21°C° 0 mm 1 mps 731 mmHg 95%
    07:00 +22°C° 0 mm 1 mps 731 mmHg 92%
    08:00 +23°C° 0 mm 1 mps 731 mmHg 88%
    09:00 +24°C° 0,3 mm 2 mps 731 mmHg 83%
    10:00 +25°C° 0,3 mm 2 mps 731 mmHg 77%
    11:00 +26°C° 0,3 mm 2 mps 731 mmHg 72%
    12:00 +27°C° 1 mm 2 mps 731 mmHg 71%
    13:00 +28°C° 1 mm 2 mps 731 mmHg 70%
    14:00 +27°C° 0 mm 3 mps 732 mmHg 70%
    15:00 +27°C° 1 mm 3 mps 732 mmHg 73%
    16:00 +26°C° 1 mm 2 mps 732 mmHg 76%
    17:00 +26°C° 1 mm 2 mps 732 mmHg 79%
    18:00 +24°C° 0,4 mm 2 mps 732 mmHg 83%
    19:00 +23°C° 0,4 mm 2 mps 732 mmHg 88%
    20:00 +22°C° 0,4 mm 1 mps 732 mmHg 92%
    21:00 +21°C° 0 mm 1 mps 732 mmHg 94%
    22:00 +21°C° 0 mm 1 mps 732 mmHg 95%
    23:00 +20°C° 0 mm 1 mps 732 mmHg 96%

    Mañana, 22 Julio, Domingo

    Tiempo Temperatura Precipitaciones Viento Presión Humedad
    00:00 +20°C° 0,2 mm 1 mps 732 mmHg 96%
    01:00 +20°C° 0,2 mm 1 mps 732 mmHg 96%
    02:00 +19°C° 0,2 mm 1 mps 732 mmHg 96%
    03:00 +20°C° 0,3 mm 1 mps 733 mmHg 96%
    04:00 +20°C° 0,3 mm 1 mps 733 mmHg 97%
    05:00 +20°C° 0,3 mm 1 mps 733 mmHg 97%
    06:00 +21°C° 0,6 mm 1 mps 733 mmHg 95%
    07:00 +20°C° 0,6 mm 2 mps 733 mmHg 94%
    08:00 +21°C° 0,6 mm 2 mps 734 mmHg 93%
    09:00 +23°C° 0,7 mm 2 mps 734 mmHg 90%
    10:00 +23°C° 0,7 mm 2 mps 734 mmHg 87%
    11:00 +24°C° 0,7 mm 3 mps 734 mmHg 85%
    12:00 +24°C° 0,3 mm 3 mps 734 mmHg 84%
    13:00 +24°C° 0,3 mm 3 mps 734 mmHg 83%
    14:00 +24°C° 0,3 mm 3 mps 734 mmHg 82%
    15:00 +22°C° 0,1 mm 3 mps 734 mmHg 82%
    16:00 +22°C° 0,1 mm 3 mps 734 mmHg 83%
    17:00 +21°C° 0,1 mm 3 mps 734 mmHg 84%
    18:00 +21°C° 0 mm 2 mps 734 mmHg 86%
    19:00 +20°C° 0 mm 2 mps 734 mmHg 88%
    20:00 +19°C° 0 mm 2 mps 734 mmHg 91%
    21:00 +19°C° 0 mm 2 mps 734 mmHg 92%
    22:00 +19°C° 0 mm 2 mps 734 mmHg 93%
    23:00 +18°C° 0 mm 2 mps 735 mmHg 94%

    Pasado mañana, 23 Julio, Lunes

    Tiempo Temperatura Precipitaciones Viento Presión Humedad
    00:00 +18°C° 0 mm 2 mps 735 mmHg 94%
    01:00 +19°C° 0 mm 1 mps 735 mmHg 94%
    02:00 +19°C° 0 mm 1 mps 735 mmHg 95%
    03:00 +18°C° 0 mm 2 mps 735 mmHg 95%
    04:00 +18°C° 0 mm 2 mps 735 mmHg 94%
    05:00 +18°C° 0 mm 2 mps 735 mmHg 94%
    06:00 +18°C° 0 mm 2 mps 735 mmHg 91%
    07:00 +19°C° 0 mm 2 mps 735 mmHg 88%
    08:00 +20°C° 0 mm 3 mps 735 mmHg 85%
    09:00 +21°C° 0,1 mm 3 mps 735 mmHg 78%
    10:00 +22°C° 0,1 mm 3 mps 735 mmHg 71%
    11:00 +24°C° 0,1 mm 3 mps 736 mmHg 64%
    12:00 +25°C° 0,2 mm 3 mps 735 mmHg 62%
    13:00 +25°C° 0,2 mm 4 mps 735 mmHg 61%
    14:00 +25°C° 0,2 mm 4 mps 735 mmHg 60%
    15:00 +25°C° 0,1 mm 4 mps 735 mmHg 62%
    16:00 +23°C° 0,1 mm 4 mps 735 mmHg 63%
    17:00 +23°C° 0,1 mm 4 mps 735 mmHg 65%
    18:00 +21°C° 0 mm 3 mps 735 mmHg 72%
    19:00 +19°C° 0 mm 2 mps 735 mmHg 79%
    20:00 +18°C° 0 mm 2 mps 736 mmHg 87%
    21:00 +17°C° 0 mm 2 mps 736 mmHg 90%
    22:00 +16°C° 0 mm 2 mps 736 mmHg 94%
    23:00 +15°C° 0 mm 2 mps 736 mmHg 97%

    24 Julio, Martes

    Tiempo Temperatura Precipitaciones Viento Presión Humedad
    00:00 +15°C° 0 mm 2 mps 736 mmHg 98%
    01:00 +15°C° 0 mm 2 mps 736 mmHg 98%
    02:00 +14°C° 0 mm 2 mps 736 mmHg 99%
    03:00 +14°C° 0 mm 2 mps 736 mmHg 98%
    04:00 +15°C° 0 mm 2 mps 736 mmHg 97%
    05:00 +15°C° 0 mm 2 mps 736 mmHg 96%
    06:00 +16°C° 0 mm 2 mps 736 mmHg 93%
    07:00 +16°C° 0 mm 2 mps 736 mmHg 89%
    08:00 +17°C° 0 mm 3 mps 736 mmHg 85%
    09:00 +18°C° 0 mm 3 mps 737 mmHg 82%
    10:00 +19°C° 0 mm 3 mps 737 mmHg 78%
    11:00 +21°C° 0 mm 3 mps 737 mmHg 75%
    12:00 +21°C° 0 mm 3 mps 737 mmHg 76%
    13:00 +21°C° 0 mm 3 mps 737 mmHg 78%
    14:00 +21°C° 0 mm 3 mps 737 mmHg 79%
    15:00 +20°C° 0 mm 3 mps 737 mmHg 81%
    16:00 +20°C° 0 mm 3 mps 737 mmHg 83%
    17:00 +20°C° 0 mm 3 mps 737 mmHg 85%
    18:00 +20°C° 0 mm 3 mps 737 mmHg 87%
    19:00 +19°C° 0 mm 2 mps 737 mmHg 89%
    20:00 +19°C° 0 mm 2 mps 737 mmHg 92%
    21:00 +18°C° 0 mm 2 mps 737 mmHg 93%
    22:00 +18°C° 0 mm 2 mps 737 mmHg 94%
    23:00 +18°C° 0 mm 2 mps 737 mmHg 95%

    25 Julio, Miércoles

    Tiempo Temperatura Precipitaciones Viento Presión Humedad
    00:00 +18°C° 0 mm 2 mps 737 mmHg 96%
    01:00 +18°C° 0 mm 2 mps 737 mmHg 97%
    02:00 +17°C° 0 mm 2 mps 737 mmHg 98%
    03:00 +18°C° 0,2 mm 2 mps 737 mmHg 98%
    04:00 +18°C° 0,2 mm 3 mps 737 mmHg 98%
    05:00 +18°C° 0,2 mm 3 mps 737 mmHg 98%
    06:00 +19°C° 0 mm 3 mps 738 mmHg 95%
    07:00 +20°C° 0 mm 3 mps 738 mmHg 93%
    08:00 +20°C° 0 mm 3 mps 738 mmHg 91%
    09:00 +22°C° 0 mm 3 mps 738 mmHg 78%
    10:00 +25°C° 0 mm 4 mps 738 mmHg 66%
    11:00 +27°C° 0 mm 5 mps 738 mmHg 53%
    12:00 +28°C° 0 mm 5 mps 738 mmHg 50%
    13:00 +28°C° 0 mm 5 mps 738 mmHg 48%
    14:00 +28°C° 0 mm 5 mps 738 mmHg 45%
    15:00 +27°C° 0 mm 5 mps 738 mmHg 49%
    16:00 +26°C° 0 mm 4 mps 738 mmHg 54%
    17:00 +25°C° 0 mm 4 mps 738 mmHg 59%
    18:00 +24°C° 0 mm 3 mps 738 mmHg 65%
    19:00 +22°C° 0 mm 3 mps 738 mmHg 71%
    20:00 +20°C° 0 mm 2 mps 738 mmHg 77%
    21:00 +20°C° 0 mm 3 mps 738 mmHg 78%
    22:00 +19°C° 0 mm 3 mps 738 mmHg 79%
    23:00 +19°C° 0 mm 3 mps 739 mmHg 81%

    26 Julio, Jueves

    Tiempo Temperatura Precipitaciones Viento Presión Humedad
    00:00 +19°C° 0 mm 3 mps 739 mmHg 83%
    01:00 +18°C° 0 mm 3 mps 739 mmHg 86%
    02:00 +18°C° 0 mm 3 mps 739 mmHg 89%
    03:00 +18°C° 0 mm 3 mps 739 mmHg 89%
    04:00 +18°C° 0 mm 3 mps 740 mmHg 89%
    05:00 +18°C° 0 mm 3 mps 740 mmHg 90%
    06:00 +19°C° 0 mm 3 mps 740 mmHg 83%
    07:00 +21°C° 0 mm 3 mps 741 mmHg 77%
    08:00 +22°C° 0 mm 3 mps 741 mmHg 71%
    09:00 +24°C° 0 mm 3 mps 741 mmHg 66%
    10:00 +26°C° 0 mm 3 mps 741 mmHg 60%
    11:00 +27°C° 0 mm 4 mps 741 mmHg 54%
    12:00 +28°C° 0 mm 4 mps 741 mmHg 52%
    13:00 +28°C° 0 mm 4 mps 741 mmHg 51%
    14:00 +29°C° 0 mm 4 mps 741 mmHg 49%
    15:00 +28°C° 0 mm 3 mps 741 mmHg 51%
    16:00 +28°C° 0 mm 3 mps 741 mmHg 54%
    17:00 +27°C° 0 mm 3 mps 742 mmHg 57%
    18:00 +26°C° 0 mm 2 mps 742 mmHg 66%
    19:00 +24°C° 0 mm 2 mps 742 mmHg 75%
    20:00 +22°C° 0 mm 1 mps 742 mmHg 84%
    21:00 +20°C° 0 mm 2 mps 742 mmHg 87%
    22:00 +20°C° 0 mm 2 mps 742 mmHg 90%
    23:00 +19°C° 0 mm 2 mps 742 mmHg 92%
    Mostrar más